Location: LDNL
(36.4545°S, 141.6685°E)
Time: 18:30:56
(UTC+10:00)

A-11 Canister half - Pass Details

Date: 04 February 2022
Orbit: 1527 x 1682 km, 47.3° (Epoch: 20 May)

Event Time Altitude Azimuth Distance (km) Brightness Sun altitude
Rises 00:56:21 0° 260° (W) 4,946 11.9 -35.8°
Reaches altitude 10° 00:59:47 10° 254° (WSW) 3,955 11.4 -36.0°
Maximum altitude 01:09:26 45° 183° (S) 2,158 10.0 -36.4°
Drops below altitude 10° 01:18:53 10° 111° (ESE) 3,872 11.2 -36.7°
Sets 01:22:12 0° 105° (ESE) 4,835 11.7 -36.8°
